#timestamp,LO_Frequency,Hit,StdDev 
1648515615.2,286046999.3,N
1648515635.0,286046999.1,N
1648515635.9,286046999.1,N
1648515655.8,286046996.8,N
1648515675.6,286046999.2,N
1648515695.5,286047001.2,N
1648515715.3,286047000.4,N
1648515735.1,286047001.1,N
1648515755.9,286047002.4,N
1648515775.7,286047002.5,N
1648515795.5,286046999.9,N
1648515815.4,286047000.0,N
1648515835.2,286047001.0,N
1648515855.1,286047002.5,N
1648515856.0,286047002.5,N
1648515875.8,286047002.8,N
1648515895.6,286047000.0,N
1648515915.5,286047001.1,N
1648515935.3,286047000.6,N
1648515955.1,286046998.8,N
1648515975.9,286047002.5,N
1648515995.7,286047000.0,N
1648516015.6,286047000.5,N
1648516035.4,286046999.8,N
1648516055.2,286047000.4,N
1648516075.1,286047002.4,N
1648516076.0,286047002.4,N
1648516095.8,286047000.5,N
1648516115.6,286047001.2,N
1648516135.5,286046999.9,N
1648516155.3,286047002.8,N
1648516175.2,286047000.2,N
1648516195.9,286047001.8,N
1648516215.7,286047000.1,N
1648516235.6,286046999.7,N
1648516255.4,286047001.2,N
1648516275.2,286047000.8,N
1648516295.1,286047000.3,N
1648516296.0,286047000.3,N
1648516315.8,286046999.9,N
1648516335.7,286046998.3,N
1648516355.5,286047000.9,N
1648516375.3,286047001.0,N
1648516395.2,286047000.8,N
1648516415.0,286046999.9,N
1648516415.9,286046999.9,N
1648516435.8,286047000.2,N
1648516455.6,286047000.0,N
1648516475.4,286047000.1,N
1648516495.3,286047000.1,N
1648516515.1,286046999.9,N
1648516535.8,286047001.0,N
1648516555.7,286046998.6,N
1648516575.5,286047000.8,N
1648516595.4,286047000.6,N
1648516615.2,286046998.2,N
1648516635.0,286046998.7,N
1648516635.9,286046998.7,N
1648516655.8,286046998.4,N
1648516675.6,286047000.1,N
1648516695.4,286047000.0,N
1648516715.3,286047002.7,N
1648516735.1,286047001.4,N
1648516755.9,286047000.4,N
1648516775.7,286047000.0,N
1648516795.5,286047000.4,N
1648516815.4,286047000.1,N
1648516835.2,286046999.8,N
1648516855.0,286047001.6,N
1648516855.9,286047001.6,N
1648516875.8,286047001.7,N
1648516895.6,286047000.0,N
1648516915.5,286047000.2,N
1648516935.3,286046998.9,N
1648516955.1,286047000.0,N
1648516975.9,286046998.8,N
1648516995.7,286047001.1,N
1648517015.5,286047000.4,N
1648517035.4,286047000.5,N
1648517055.2,286046999.9,N
1648517075.1,286047000.3,N
1648517076.0,286047000.3,N
1648517095.8,286047001.3,N
1648517115.6,286047000.1,N
1648517135.5,286047003.9,Y
1648517155.3,286047001.8,P
1648517175.1,286047003.5,P
1648517195.9,286047003.1,N
1648517215.7,286047005.6,Y
1648517235.6,286046999.9,P
1648517255.4,286047000.0,N
1648517275.2,286046998.1,N
1648517295.1,286047000.7,N
1648517296.0,286047000.7,N
1648517315.8,286046998.7,N
1648517335.7,286047001.0,N
1648517355.5,286046998.7,N
1648517375.3,286047000.8,N
1648517395.2,286046999.1,N
1648517415.0,286046996.6,N
1648517415.9,286046996.6,N
1648517435.7,286046996.7,N
1648517455.6,286046996.7,N
1648517475.4,286046999.5,N
1648517495.3,286046998.8,N
1648517515.1,286046998.5,N
1648517516.0,286046998.5,N
1648517535.8,286046999.5,N
1648517555.7,286046997.6,N
1648517575.5,286046997.3,N
1648517595.4,286046994.9,Y
1648517615.2,286046998.2,P
1648517635.0,286046999.7,N
1648517635.9,286046999.7,N
1648517655.8,286047001.1,N
1648517675.6,286046998.2,N
1648517695.4,286047001.2,N
1648517715.3,286046998.3,N
1648517735.1,286047000.6,N
1648517755.9,286047002.0,N
1648517775.7,286047001.7,N
1648517795.5,286047002.1,N
1648517815.4,286047000.0,N
1648517835.2,286047000.6,N
1648517855.0,286046998.1,N
1648517855.9,286046998.1,N
1648517875.8,286047001.2,N
1648517895.6,286047000.7,N
1648517915.5,286047000.9,N
1648517935.3,286046998.2,N
1648517955.1,286046998.5,N
1648517975.9,286046999.8,N
1648517995.7,286046999.8,N
1648518015.6,286047000.3,N
1648518035.4,286047001.5,N
1648518055.2,286047002.0,N
1648518075.1,286047002.6,N
1648518076.0,286047002.6,N
1648518095.8,286047000.3,N
1648518115.6,286047000.1,N
1648518135.5,286047000.1,N
1648518155.3,286047002.3,N
1648518175.2,286046998.1,N
1648518195.9,286047000.5,N
1648518215.7,286047000.1,N
1648518235.6,286047000.8,N
1648518255.4,286047000.4,N
1648518275.3,286046998.2,N
1648518295.1,286046998.5,N
1648518296.0,286046998.5,N
1648518315.8,286046998.9,N
1648518335.7,286046998.2,N
1648518355.5,286046998.6,N
1648518375.4,286046999.3,N
1648518395.2,286046999.3,N
1648518415.0,286046998.7,N
1648518415.9,286046998.7,N
1648518435.8,286046998.7,N
1648518455.6,286046999.5,N
1648518475.4,286046999.2,N
1648518495.3,286046999.0,N
1648518515.1,286046998.8,N
1648518535.9,286046998.7,N
1648518555.7,286046998.5,N
1648518575.5,286046999.3,N
1648518595.4,286046999.1,N
1648518615.2,286046996.6,N
1648518635.0,286046997.2,N
1648518635.9,286046997.2,N
1648518655.8,286046998.4,N
1648518675.6,286046997.3,N
1648518695.5,286046994.9,Y
1648518715.3,286046999.0,P
1648518735.1,286046999.4,P
1648518755.9,286046998.5,P
1648518775.7,286046998.9,Y
1648518795.6,286046999.9,P
1648518815.4,286047002.8,P
1648518835.2,286047001.6,N
1648518855.1,286047001.9,N
1648518856.0,286047001.9,N
1648518875.8,286047001.8,N
1648518895.6,286047001.4,N
1648518915.5,286047003.5,N
1648518935.3,286047004.3,Y
1648518955.2,286047001.7,P
1648518975.9,286046999.7,P
1648518995.7,286047000.4,N
1648519015.6,286047000.0,N
1648519035.4,286047000.6,N
1648519055.2,286047000.9,N
1648519075.1,286047001.1,N
1648519076.0,286047001.1,N
1648519095.8,286046998.1,Y
1648519115.7,286046998.2,P
1648519135.5,286046997.0,N
1648519155.3,286046995.1,P
1648519175.2,286046995.8,N
1648519195.0,286046993.9,Y
1648519195.9,286046993.9,P
